Location: Donzy-le-Pr�
(47.3659°N, 3.1107°E)
Time: 16:37:09
(UTC+00:00)

USA 305 - Pass Details

Date: 03 March 2021
Orbit: 567 x 574 km, 54.0° (Epoch: 22 April)

Event Time Altitude Azimuth Distance (km) Brightness Sun altitude
Rises 18:02:48 0° 268° (W) 2,779 9.4 -5.4°
Reaches altitude 10° 18:05:10 10° 276° (W) 1,881 7.3 -5.8°
Maximum altitude 18:09:12 39° 346° (NNW) 864 3.9 -6.5°
Drops below altitude 10° 18:13:14 10° 57° (ENE) 1,879 5.0 -7.1°
Enters shadow 18:14:04 - 60° (ENE) 2,187 5.3 -7.3°
